Regional Weather Roundup
Issued by NWS Newport/Morehead, NC

Current Version | Previous Version | Graphics & Text | Print | Product List | Glossary On
Versions: 1 2 3 4 5 6 7 8 9 10 11 12 13 14 15 16 17 18 19 20 21 22 23 24 25 26 27 28 29 30 31 32 33 34 35 36 37 38 39 40 41 42 43 44 45 46 47 48 49 50
000 ASUS42 KMHX 121725 RWRMHX WEATHER ROUNDUP FOR EASTERN NORTH CAROLINA NATIONAL WEATHER SERVICE NEWPORT/MOREHEAD CITY NC 1200 PM EST TUE DEC 12 2017 NOTE: "FAIR" INDICATES FEW OR NO CLOUDS BELOW 12,000 FEET WITH NO SIGNIFICANT WEATHER AND/OR OBSTRUCTIONS TO VISIBILITY NCZ015>017-031-032-045>047-102-103-121800- NORTH COAST CITY SKY/WX TMP DP RH WIND PRES REMARKS EDENTON SUNNY 55 41 59 SW10 29.62F ELIZABETH CITY SUNNY 54 43 66 SW14 29.61F KITTY HAWK MOSUNNY 54 39 58 CALM 29.58F MANTEO MOSUNNY 54 41 60 W10 29.60F $$ NCZ045>047-081-094-103-104-121800- CENTRAL COAST CITY SKY/WX TMP DP RH WIND PRES REMARKS FRISCO MOSUNNY 63 47 55 SW22G32 29.63F $$ NCZ095-097-098-100-101-121800- SOUTHERN COAST CITY SKY/WX TMP DP RH WIND PRES REMARKS BEAUFORT SUNNY 59 50 72 SW14 29.65F CEDAR ISLAND NOT AVBL JACKSONVILLE PTSUNNY 60 41 49 SW12G18 29.65F PINEY ISLAND N/A N/A N/A N/A SW24G32 29.63F WILMINGTON SUNNY 63 40 42 SW20G28 29.66F $$ NCZ011>013-027>030-043-044-078>080-089-090>093-098-121800- COASTAL PLAIN CITY SKY/WX TMP DP RH WIND PRES REMARKS AHOSKIE CLOUDY 49 38 65 CALM 29.63F CLINTON SUNNY 55 40 56 SW10G16 29.67F ELIZABETHTOWN NOT AVBL GOLDSBORO MOSUNNY 54 38 55 SW13 29.64F GREENVILLE MOSUNNY 54 37 54 W7 29.67F HAVELOCK SUNNY 63 41 44 SW24 29.64F KENANSVILLE SUNNY 57 39 51 SW8G17 29.66F KINSTON SUNNY 55 39 54 SW12G17 29.66 NEW BERN MOSUNNY 56 40 55 SW12 29.65F RICHLANDS SUNNY 57 41 55 SW12 29.67F ROCKY MOUNT CLOUDY 50 39 66 SW8 29.65F WASHINGTON SUNNY 57 39 51 SW12 29.64F WHITEVILLE SUNNY 56 39 53 SW9 29.67F $$ AMZ130-135-150-152-154-156-158-170-250-252-270-ANZ085-086-088-633-658-670-121800- MARINE OBSERVATIONS STATION/POSITION TIME TEMP WIND PRES WAVE SWELL AIR SEA DIR/SP/G HT/PER HT/PER (UTC) (F) (DEG/KT/KT) (MB) (FT/S) (FT/S) CHESAPEAKE LIGHT NOT AVBL 64 E VA BEACH 1650 56 61 240/ 23/ 27 1001.8 7/ 6 DUCK 1700 52 55 240/ 14/ 18 1001.6 2 E DUCK 1700 56 N/A 2/ 8 OREGON INLET 1700 52 46 210/ 13/ 15 1002.2 13E OREGON INLT 1648 58 N/A 5/ 5 2/ 8 HATTERAS CG 1700 61 56 230/ 17/ 24 1003.0 DIAMOND BUOY 1710 66 74 230/ 29/ 37 1003.3 CAPE LOOKOUT 1700 220/ 15/ 19 1004.3 BEAUFORT LAB 1700 59 52 230/ 5/ 11 1003.9 30 SE NEW RVR IN 1708 63 66 210/ 21/ 29 1004.0 30 SE NEW RVR IN 1700 66 N/A 7/ 7 27 SE WRIGHTSVLE 1708 62 66 220/ 25/ 35 1005.0 5 SE WRIGHTSVLE 1708 59 58 230/ 19/ 25 1004.4 225 S CAPE HAT 1650 70 75 220/ 23/ 27 1009.6 7/ 7 2/ 9 41 SE CHARLESTON 1710 64 74 230/ 23/ 31 1006.4 $$

USA.gov is the U.S. government's official web portal to all federal, state and local government web resources and services.